Weather History for KCPW - July, 2013

Change the Weather History Date:

Saturday, July 6, 2013

  Actual Average (KALS) Record (KALS)
Temperature  
Mean Temperature 50 °F 64 °F  
Max Temperature 60 °F 83 °F 94 °F (1989)
Min Temperature 41 °F 46 °F 33 °F (1938)
Degree Days  
Heating Degree Days 14 2  
Month to date heating degree days 12  
Since 1 June heating degree days 180  
Since 1 July heating degree days 12  
Cooling Degree Days 0 1  
Month to date cooling degree days 6  
Year to date cooling degree days 12  
Since 1 June cooling degree days 12  
Moisture  
Dew Point 38 °F    
Average Humidity 68    
Maximum Humidity 100    
Minimum Humidity 47    
Precipitation  
Precipitation 0.04 in 0.03 in 0.56 in (2006)
Month to date precipitation 0.15  
Year to date precipitation 2.86  
Snow  
Snow 0.00 in 0.00 in 0.00 in (2002)
Month to date snowfall 0.0  
Since 1 June snowfall 0.0  
Since 1 July snowfall 0.0  
Snow Depth -    
Sea Level Pressure  
Sea Level Pressure 30.54 in    
Wind  
Wind Speed - (North)    
Max Wind Speed -    
Max Gust Speed -    
Visibility 10 miles    
Events Rain , Thunderstorm    
T = Trace of Precipitation, MM = Missing Value Source: NWS Daily Summary

Daily Weather History Graph

Daily Weather History Graph

Search for Another Location

Airport or City:

Trip Planner

Search our weather history database for the weather conditions in past years. The results will help you decide how hot, cold, wet, or windy it might be!

Date:

Astronomy

Jul. 06, 2013 Rise Set
Actual Time 5:52 AM MDT 8:31 PM MDT
Civil Twilight 5:21 AM MDT 9:01 PM MDT
Nautical Twilight 4:43 AM MDT 9:40 PM MDT
Astronomical Twilight 4:00 AM MDT 10:22 PM MDT
Moon 4:39 AM MDT (7/6) 7:15 PM MDT (7/6)
Length of Visible Light 15h 40m
Length of Day
14h 38m
Waning Crescent, 2% of the Moon is Illuminated
Jul 6
Waning Crescent
Jul 8
New
Jul 15
First Quarter
Jul 22
Full
Jul 29
Last Quarter

Hourly Weather History & Observations

Time (MDT) Temp. Dew Point Humidity Pressure Visibility Wind Dir Wind Speed Gust Speed Precip Events Conditions
12:17 AM 46.4 °F 37.4 °F 71% 30.52 in 10.0 mi North - - N/A   Overcast
12:37 AM 46.4 °F 39.2 °F 76% 30.52 in 10.0 mi North - - N/A   Mostly Cloudy
12:57 AM 44.6 °F 39.2 °F 81% 30.52 in 10.0 mi North - - N/A   Mostly Cloudy
1:17 AM 44.6 °F 41.0 °F 87% 30.52 in 10.0 mi North - - N/A   Drizzle
1:37 AM 44.6 °F 41.0 °F 87% 30.52 in 10.0 mi North - - N/A   Overcast
1:57 AM 44.6 °F 41.0 °F 87% 30.52 in 10.0 mi North - - N/A   Overcast
2:17 AM 44.6 °F 41.0 °F 87% 30.51 in 10.0 mi North - - N/A   Overcast
2:37 AM 42.8 °F 41.0 °F 93% 30.52 in 10.0 mi North - - N/A   Scattered Clouds
2:57 AM 42.8 °F 41.0 °F 93% 30.51 in 10.0 mi North - - N/A   Clear
3:17 AM 42.8 °F 41.0 °F 93% 30.51 in 10.0 mi North - - N/A   Scattered Clouds
3:37 AM 42.8 °F 41.0 °F 93% 30.51 in 10.0 mi North - - N/A   Overcast
3:57 AM 42.8 °F 41.0 °F 93% 30.51 in 10.0 mi North - - N/A   Overcast
4:17 AM 42.8 °F 41.0 °F 93% 30.52 in 10.0 mi North - - N/A   Mostly Cloudy
4:37 AM 41.0 °F 41.0 °F 100% 30.51 in 10.0 mi North - - N/A   Scattered Clouds
4:57 AM 41.0 °F 41.0 °F 100% 30.52 in 10.0 mi North - - N/A   Clear
5:17 AM 42.8 °F 41.0 °F 93% 30.52 in 10.0 mi North - - N/A   Clear
5:37 AM 42.8 °F 41.0 °F 93% 30.52 in 10.0 mi North - - N/A   Clear
5:57 AM 44.6 °F 39.2 °F 81% 30.52 in 10.0 mi North - - N/A   Mostly Cloudy
6:17 AM 44.6 °F 37.4 °F 76% 30.52 in 10.0 mi North - - N/A   Overcast
6:37 AM 44.6 °F 37.4 °F 76% 30.52 in 10.0 mi North - - N/A   Mostly Cloudy
6:57 AM 44.6 °F 37.4 °F 76% 30.52 in 10.0 mi North - - N/A   Overcast
7:17 AM 44.6 °F 37.4 °F 76% 30.52 in 10.0 mi North - - N/A   Overcast
7:37 AM 46.4 °F 35.6 °F 66% 30.52 in 10.0 mi North - - N/A   Mostly Cloudy
7:57 AM 48.2 °F 37.4 °F 66% 30.53 in 10.0 mi North - - N/A   Clear
8:17 AM 50.0 °F 37.4 °F 62% 30.54 in 10.0 mi North - - N/A   Clear
8:37 AM 50.0 °F 41.0 °F 71% 30.54 in 10.0 mi North - - N/A   Clear
8:57 AM 51.8 °F 37.4 °F 58% 30.54 in 10.0 mi North - - N/A   Clear
9:17 AM 51.8 °F 35.6 °F 54% 30.54 in 10.0 mi North - - N/A   Clear
9:37 AM 53.6 °F 41.0 °F 62% 30.54 in 10.0 mi North - - N/A   Clear
9:57 AM 55.4 °F 37.4 °F 51% 30.54 in 10.0 mi North - - N/A   Clear
10:17 AM 55.4 °F 39.2 °F 54% 30.54 in 10.0 mi North - - N/A   Clear
10:37 AM 53.6 °F 39.2 °F 58% 30.55 in 10.0 mi North - - N/A   Scattered Clouds
10:57 AM 53.6 °F 41.0 °F 62% 30.55 in 10.0 mi North - - N/A   Mostly Cloudy
11:17 AM 53.6 °F 37.4 °F 54% 30.56 in 10.0 mi North - - N/A   Mostly Cloudy
11:37 AM 55.4 °F 37.4 °F 51% 30.56 in 10.0 mi North - - N/A   Scattered Clouds
11:57 AM 55.4 °F 35.6 °F 47% 30.56 in 10.0 mi North - - N/A   Mostly Cloudy
12:17 PM 57.2 °F 37.4 °F 48% 30.56 in 10.0 mi North - - N/A   Scattered Clouds
12:37 PM 55.4 °F 37.4 °F 51% 30.55 in 10.0 mi North - - N/A   Scattered Clouds
12:57 PM 59.0 °F 39.2 °F 48% 30.55 in 10.0 mi North - - N/A   Mostly Cloudy
1:17 PM 57.2 °F 37.4 °F 48% 30.55 in 10.0 mi North - - N/A   Mostly Cloudy
1:37 PM 60.8 °F 41.0 °F 48% 30.54 in 10.0 mi North - - N/A   Overcast
1:57 PM 55.4 °F 42.8 °F 63% 30.54 in 10.0 mi North - - N/A Rain Rain
2:16 PM 59.0 °F 42.8 °F 55% 30.54 in 10.0 mi North - - N/A   Mostly Cloudy
2:37 PM 55.4 °F 37.4 °F 51% 30.54 in 10.0 mi North - - N/A   Overcast
2:57 PM 53.6 °F 37.4 °F 54% 30.53 in 10.0 mi North - - N/A Thunderstorm Unknown
3:17 PM 55.4 °F 39.2 °F 54% 30.52 in 10.0 mi North - - N/A   Overcast
3:37 PM 51.8 °F 37.4 °F 58% 30.53 in 10.0 mi North - - N/A   Light Drizzle
3:57 PM 51.8 °F 37.4 °F 58% 30.53 in 10.0 mi North - - N/A Rain Light Rain
4:17 PM 48.2 °F 37.4 °F 66% 30.54 in 10.0 mi North - - N/A Rain Light Rain
4:37 PM 51.8 °F 35.6 °F 54% 30.54 in 10.0 mi North - - N/A Rain , Thunderstorm Light Thunderstorms and Rain
4:56 PM 50.0 °F 35.6 °F 58% 30.54 in 10.0 mi North - - N/A Rain , Thunderstorm Thunderstorms and Rain
5:17 PM 48.2 °F 37.4 °F 66% 30.54 in 7.0 mi North - - 0.02 in Rain Light Rain
5:37 PM 50.0 °F 35.6 °F 58% 30.52 in 10.0 mi North - - 0.03 in Rain Light Rain
5:57 PM 48.2 °F 39.2 °F 71% 30.50 in 10.0 mi North - - 0.04 in Rain Light Rain
6:17 PM 50.0 °F 37.4 °F 62% 30.51 in 10.0 mi North - - N/A   Overcast
6:37 PM 50.0 °F 35.6 °F 58% 30.51 in 10.0 mi North - - N/A   Mostly Cloudy
6:57 PM 51.8 °F 35.6 °F 54% 30.51 in 10.0 mi North - - N/A   Scattered Clouds
7:17 PM 50.0 °F 35.6 °F 58% 30.52 in 10.0 mi North - - N/A Thunderstorm Scattered Clouds
7:37 PM 50.0 °F 35.6 °F 58% 30.53 in 10.0 mi North - - N/A   Scattered Clouds
7:57 PM 51.8 °F 33.8 °F 50% 30.54 in 10.0 mi North - - N/A Thunderstorm Overcast
8:17 PM 50.0 °F 33.8 °F 54% 30.54 in 10.0 mi North - - N/A   Overcast
8:37 PM 50.0 °F 35.6 °F 58% 30.56 in 10.0 mi North - - N/A Rain Rain
8:57 PM 46.4 °F 39.2 °F 76% 30.57 in 10.0 mi North - - N/A   Drizzle
9:17 PM 46.4 °F 39.2 °F 76% 30.57 in 10.0 mi North - - N/A   Light Drizzle
9:37 PM 44.6 °F 39.2 °F 81% 30.59 in 10.0 mi North - - N/A   Overcast
9:57 PM 44.6 °F 37.4 °F 76% 30.59 in 10.0 mi North - - N/A Thunderstorm Unknown
10:17 PM 44.6 °F 37.4 °F 76% 30.59 in 10.0 mi North - - N/A   Overcast
10:37 PM 44.6 °F 39.2 °F 81% 30.59 in 10.0 mi North - - N/A   Light Drizzle
10:57 PM 46.4 °F 35.6 °F 66% 30.59 in 10.0 mi North - - N/A   Overcast
11:17 PM 48.2 °F 35.6 °F 62% 30.59 in 10.0 mi North - - N/A   Overcast
11:37 PM 46.4 °F 35.6 °F 66% 30.59 in 10.0 mi North - - N/A   Overcast
11:57 PM 46.4 °F 35.6 °F 66% 30.59 in 10.0 mi North - - N/A   Overcast